Regional Weather Roundup
Issued by NWS

Home | Current Version | Previous Version | Text Only | Print | Product List | Glossary On
Versions: 1 2 3 4 5 6 7 8 9 10 11 12 13 14 15 16 17 18 19 20 21 22 23 24 25 26 27 28 29 30 31 32 33 34 35 36 37 38 39 40 41 42 43 44 45 46 47 48 49 50
000
ASUS45 KTFX 210219
RWRMT
MONTANA HOURLY WEATHER ROUNDUP
NATIONAL WEATHER SERVICE GREAT FALLS MT
819 PM MDT SUN APR 20 2014

NOTE: "FAIR" INDICATES FEW OR NO CLOUDS BELOW 12000 FEET WITH NO
SIGNIFICANT WEATHER AND/OR OBSTRUCTIONS TO VISIBILITY.

* THESE STATIONS ARE NOT UNDER NWS QUALITY CONTROL. THEY DO NOT
   REPORT WEATHER SUCH AS PRECIPITATION OR FOG.

MTZ001>007-043-210300-
WEST OF THE DIVIDE
CITY           SKY/WX    TMP DP  RH WIND       PRES   REMARKS
KALISPELL      MOCLDY    52  21  30 W8        30.20R
MISSOULA       CLEAR     54  19  25 NW9       30.22S
BUTTE          MOCLDY    48  10  21 NW13      30.20S
MULLAN PASS    MOCLDY    37  19  48 SW5       30.23F WCI  33
* ESSEX        N/A       43  26  51 W2         N/A
* LINCOLN      N/A       51  13  22 W9G20      N/A
* LOOKOUT PASS N/A       43  23  45 N/A        N/A
* PLAINS APT   MOCLDY    57  19  23 CALM      30.22R
* POLSON       N/A       49  20  32 S1         N/A
* SEELEY LAKE  N/A       52  18  26 NW6G12     N/A
* THOMP F APT  MOCLDY    58  15  18 SE3G19     N/A
$$

MTZ008-052>055-210300-
SOUTHWEST MONTANA
CITY           SKY/WX    TMP DP  RH WIND       PRES   REMARKS
BOZEMAN        PTCLDY    55  12  18 NW14      30.15R
DILLON         CLOUDY    55  12  18 CALM      30.16S
W YELLOWSTONE  N/A       48  25  41 SW3G9      N/A
* THREE FORKS  MOCLDY    61  14  16 W6         N/A
* BOULDER HILL N/A       49  13  23 N/A        N/A
* MONIDA PASS  N/A       52  11  19 NW9        N/A
* RAYNOLDS PAS N/A       46   1  15 N6         N/A
* WHITEHALL    N/A       59   8  13 NW11G21    N/A
* WISE RIVER   N/A       50  14  24 NW15G20    N/A
$$

MTZ009>010-012-014-046-048-049-054-210300-
EAST SLOPES AND CENTRAL MONTANA
CITY           SKY/WX    TMP DP  RH WIND       PRES   REMARKS
CUT BANK       PTCLDY    48  21  34 W16       30.14R
GREAT FALLS    PTCLDY    50  18  28 W6        30.14R
HELENA         PTCLDY    55  12  18 W15       30.17R
MALMSTROM AFB  MOCLDY    55  12  18 W8        30.13R
* CONRAD       PTCLDY    52  21  30 W9         N/A
* DEARBORN     N/A       56  13  18 S15        N/A
* MONARCH      N/A       47   8  20 W13G21     N/A
* PENDROY      N/A       47  17  30 NW8G15     N/A
* ROGERS PASS  N/A       45  10  24 SE9G16     N/A
* SAINT MARY   N/A       45  20  37 SW6G18     N/A
* SWEET GRASS  N/A       51  17  26 NW13G19    N/A
* WHITE SULPH  N/A       49   9  20 NW12G22    N/A
$$

MTZ011-013-016-021-035-040-045-047-050-051-210300-
NORTH CENTRAL MONTANA
CITY           SKY/WX    TMP DP  RH WIND       PRES   REMARKS
HAVRE          MOCLDY    57  19  23 W12       30.08R
LEWISTOWN      PTCLDY    48  16  28 NW9       30.14R
* CHINOOK      CLEAR     57  23  27 W10       30.07R
* FORT BENTON  PTCLDY    54  18  24 W9        30.14R
* MALTA APT    CLEAR     59  25  27 W9        30.02R
* CHESTER      N/A       55  19  24 W14G21     N/A
* DENTON       N/A       52  14  22 W11        N/A
* GEYSER       N/A       48  13  24 NW11       N/A
* JUDITH GAP   N/A       49  15  26 N14        N/A
* LOMA         N/A       57  18  22 W14        N/A
$$

MTZ017>020-022>027-061-062-210300-
NORTHEAST MONTANA
CITY           SKY/WX    TMP DP  RH WIND       PRES   REMARKS
GLASGOW        CLEAR     57  25  29 W14       30.03R
GLENDIVE       CLEAR     55  23  29 NW14      30.07R
JORDAN         CLEAR     55  23  29 NW10      30.07R
SIDNEY         CLEAR     52  27  38 W6        30.04R
WOLF POINT     CLEAR     59  25  27 W15G21    30.02R
* BEAVER HILL  N/A       56  22  27 W12G18     N/A
* CIRCLE       N/A       59  29  32 NW10       N/A
* LINDSAY DVD  N/A       55  24  30 NW12G20    N/A
* NAVAJO       N/A       53  30  41 NW15G21    N/A
* SACO         N/A       56  25  30 W12        N/A
* SCOBEY APT   CLEAR     54  25  33 W21       29.99R
$$

MTZ028>042-056>058-210300-
SOUTHCENTRAL AND SOUTHEAST MONTANA
CITY           SKY/WX    TMP DP  RH WIND       PRES   REMARKS
BAKER          CLEAR     55  18  23 NW8       30.06R
BILLINGS       PTCLDY    57  14  18 N10       30.12R
LIVINGSTON     CLEAR     55  12  18 NW16      30.12R
MILES CITY     CLEAR     57  19  23 NW12      30.07R
* EKALAKA APT  CLEAR     52  16  24 W6        30.06R
* LAUREL APT   CLEAR     59  19  21 NW8        N/A
* ROUNDUP APT  CLEAR     57  12  17 NW7        N/A
* HYSHAM       N/A       57  14  18 NW3        N/A
* LAME DEER    N/A       53  16  23 N8         N/A
* REED POINT   N/A       60  19  20 W17G22     N/A
* ROSCOE HILL  N/A       52   9  17 NE10       N/A
$$

REGIONAL REPORTS...DAKOTAS
CITY           SKY/WX    TMP DP  RH WIND       PRES   REMARKS
WILLISTON      PTCLDY    55  27  34 NW13      29.98R
DICKINSON      CLEAR     52  21  30 NW10      30.00R
CROSBY         CLEAR     48  32  54 W12       29.96R
TIOGA          CLEAR     54  28  37 NW17G31   29.99R
WATFORD CITY   CLEAR     54  27  35 W12       29.98R
BISMARCK       MOCLDY    64  23  21 NW15      29.96R
GRAND FORKS    MOCLDY    63  39  41 S13       29.80F
FARGO          MOCLDY    66  37  34 SE10      29.87S
BUFFALO SD     CLEAR     54  21  27 NW13      30.00R
RAPID CITY     CLEAR     57  28  33 NW13      30.04R
$$

REGIONAL REPORTS...WYOMING/IDAHO/WASHINGTON
CITY           SKY/WX    TMP DP  RH WIND       PRES   REMARKS
GILLETTE       CLEAR     48  25  41 NW10      30.12R
SHERIDAN       CLEAR     48  28  46 NW9       30.12R
CODY           CLEAR     52  19  27 N6        30.15R
YELLOWSTONE LA PTCLDY    43  21  42 CALM      30.26R
SALMON         PTCLDY    52  21  30 SW5       30.17R
MULLAN PASS    MOCLDY    37  19  48 SW5       30.23S WCI  33
SAND POINT     MOCLDY    54  28  37 SW3       30.21F
SPOKANE        CLOUDY    54  27  35 S3        30.20F
$$

REGIONAL REPORTS...ALBERTA
CITY           SKY/WX    TMP DP  RH WIND       PRES   REMARKS
CALGARY        PTCLDY    50  18  28 W12G20    30.04S
LETHBRIDGE     MOCLDY    50  23  35 W23G30    30.09R
MEDICINE HAT   MOCLDY    55  27  34 N5        30.05R
EDMONTON       MOCLDY    52  30  43 W5        30.00R
WATERTON GATE  N/A       46  18  33 SW15G23    N/A
CARDSTON       N/A       46  23  40 W10        N/A
MILK RIVER     N/A       50  19  29 W14G20     N/A
$$

REGIONAL REPORTS...SASKATCHEWAN
CITY           SKY/WX    TMP DP  RH WIND       PRES   REMARKS
SWIFT CURRENT  CLEAR     45  36  71 NW13G18   30.00R
REGINA         MOCLDY    43  41  93 N21G28    29.92R
VAL MARIE      N/A       50  23  35 NW10       N/A
ASSINIBOIA     N/A       46  34  63 NW21G29    N/A
CORONACH       N/A       50  32  50 NW15G21    N/A

$$




USA.gov is the U.S. government's official web portal to all federal, state and local government web resources and services.